星链-4048 (STARLINK-4048 )

导读 | 星芒AI

STARLINK-4048 是 SpaceX 星链计划中的一颗低轨通信卫星,属于第 40 批部署的星链卫星群。它运行在约 550 公里的近地轨道,旨在为全球用户提供高速互联网服务。该卫星采用先进推进系统和激光通信技术,具备高带宽和低延迟特性,支持偏远地区网络接入。作为星链星座的一部分,STARLINK-4048 有助于提升全球互联网覆盖范围和连接质量。

基本信息
目录编号:
52839
目录名称:
STARLINK-4048
国际标识:
2022-062K
轨道中心:
EARTH
卫星名称:
星链-4048
卫星全名:
星链-4048 (STARLINK-4048 )
卫星状态:
在轨 (已飞行1237 天)
发射日期:
2022-06-17 UTC
国别 :
美国 (US)
星等 :
--
轨道信息
数据来源 国际轨道数据 AOE轨道数据
星历时间 2025-11-04T09:57:35+0800
22小时前
查看轨道信息
2025-10-30T23:00:00+0800
5天前
查看轨道信息
半长轴 6917.882km 6917.878km
偏心率 0.0001603 0.000137
轨道倾角 53.216° 53.215°
近地点辐角 92.765° 85.656°
升交点赤经 237.999° 258.009°
平近点角 267.353° 173.569°
近地点 538.638km 538.795km
远地点 540.856km 540.691km
周期 95.438分钟 95.437分钟
每日圈数 15.088397 15.088409
详细信息
固有亮度:
5
最大亮度:
2.5
卫星平台:
Starlink v1.5
覆盖范围:
全球
运营商:
太空探索技术公司
运营商所在国:
美国
制造商(研发单位):
太空探索技术公司
制造商所在国:
美国
使用方式:
暂无
卫星简介
星链(Starlink)计划是由太空探索技术公司(SpaceX)提出的一个巨型低轨卫星互联网星座项目,计划在2019年至2024年间在太空搭建由约1.2万颗卫星组成的“星链”网络,其中1584颗将部署在地球上空550千米处的近地轨道,并从2020年开始工作。该卫星仍在工作。
2D轨道图
3D轨道图
轨道高度分析图
轨道倾角分析图
轨道综合分析图
查看轨道综合分析图